San Angelo, TX

9:02 AM CDT on August 17, 2017 (GMT -0500)
San Angelo Regional-Mathis

Weather History for KSJT - October, 2013

Change the Weather History Date:

Friday, October 18, 2013

  Actual Average Record
Temperature  
Mean Temperature 62 °F 66 °F  
Max Temperature 75 °F 78 °F 97 °F (2016)
Min Temperature 48 °F 53 °F 36 °F (1968)
Degree Days  
Heating Degree Days 3 3  
Month to date heating degree days 33 29  
Since 1 July heating degree days 33 38  
Cooling Degree Days 0 3  
Month to date cooling degree days 112 87  
Year to date cooling degree days 2826 2452  
Growing Degree Days 12 (Base 50)    
Moisture  
Dew Point 56 °F    
Average Humidity 79    
Maximum Humidity 93    
Minimum Humidity 64    
Precipitation  
Precipitation T in 0.10 in 3.24 in (1985)
Month to date precipitation 1.39 1.65  
Year to date precipitation 17.77 18.18  
Snow  
Snow 0.00 in 0.00 in 0.00 in (2002)
Month to date snowfall 0.0 0.0  
Since 1 July snowfall 0.0 0.0  
Snow Depth 0.00 in    
Sea Level Pressure  
Sea Level Pressure 29.96 in    
Wind  
Wind Speed 9 mph (SSW)    
Max Wind Speed 36 mph    
Max Gust Speed 45 mph    
Visibility 10 miles    
Events Rain    
T = Trace of Precipitation, MM = Missing Value Source: NWS Daily Summary

Daily Weather History Graph

Daily Weather History Graph

Search for Another Location

Airport or City:

Trip Planner

Search our weather history database for the weather conditions in past years. The results will help you decide how hot, cold, wet, or windy it might be!

Date:

Astronomy

Oct. 18, 2013 Rise Set
Actual Time 7:47 AM CDT 7:06 PM CDT
Civil Twilight 7:22 AM CDT 7:30 PM CDT
Nautical Twilight 6:54 AM CDT 7:59 PM CDT
Astronomical Twilight 6:26 AM CDT 8:27 PM CDT
Moon 6:59 PM CDT (10/18) 7:24 AM CDT (10/18)
Length of Visible Light 12h 08m
Length of Day
11h 19m
Full, 100% of the Moon is Illuminated
Oct 18
Full
Oct 18
Full
Oct 26
Last Quarter
Nov 3
New
Nov 9
First Quarter

Hourly Weather History & Observations

Time (CDT) Temp. Dew Point Humidity Pressure Visibility Wind Dir Wind Speed Gust Speed Precip Events Conditions
12:51 AM 57.9 °F 54.0 °F 87% 29.94 in 10.0 mi South 3.5 mph - N/A   Clear
1:51 AM 57.0 °F 54.0 °F 89% 29.94 in 10.0 mi Calm Calm - N/A   Partly Cloudy
2:51 AM 57.9 °F 55.9 °F 93% 29.92 in 10.0 mi SSE 3.5 mph - N/A   Overcast
3:51 AM 61.0 °F 57.9 °F 90% 29.91 in 10.0 mi South 4.6 mph - N/A   Overcast
4:51 AM 59.0 °F 57.0 °F 93% 29.89 in 10.0 mi Calm Calm - N/A   Scattered Clouds
5:01 AM 59.0 °F 57.2 °F 94% 29.93 in 10.0 mi SSE 3.5 mph - N/A   Mostly Cloudy
5:14 AM 60.8 °F 57.2 °F 88% 29.93 in 10.0 mi South 4.6 mph - N/A   Overcast
5:51 AM 60.1 °F 57.9 °F 93% 29.88 in 10.0 mi South 4.6 mph - N/A   Overcast
6:25 AM 60.8 °F 57.2 °F 88% 29.93 in 10.0 mi SSE 4.6 mph - N/A   Overcast
6:43 AM 60.8 °F 57.2 °F 88% 29.93 in 10.0 mi Calm Calm - N/A   Overcast
6:51 AM 61.0 °F 57.9 °F 90% 29.90 in 10.0 mi Calm Calm - N/A   Overcast
6:59 AM 60.8 °F 57.2 °F 88% 29.93 in 10.0 mi South 3.5 mph - N/A   Overcast
7:51 AM 62.1 °F 59.0 °F 90% 29.90 in 10.0 mi South 4.6 mph - N/A   Overcast
8:51 AM 63.0 °F 57.9 °F 84% 29.92 in 10.0 mi South 11.5 mph - N/A   Overcast
9:51 AM 63.0 °F 59.0 °F 87% 29.94 in 10.0 mi SSW 8.1 mph - N/A   Overcast
10:20 AM 64.4 °F 59.0 °F 83% 29.97 in 10.0 mi SSW 9.2 mph - N/A   Overcast
10:51 AM 64.9 °F 59.0 °F 81% 29.94 in 10.0 mi SSW 11.5 mph - N/A   Overcast
11:51 AM 66.9 °F 60.1 °F 79% 29.92 in 10.0 mi SSW 15.0 mph - N/A   Overcast
12:51 PM 69.1 °F 61.0 °F 75% 29.91 in 10.0 mi SW 11.5 mph - N/A   Overcast
1:51 PM 70.0 °F 62.1 °F 76% 29.88 in 10.0 mi SSW 9.2 mph - N/A   Overcast
2:51 PM 72.0 °F 61.0 °F 68% 29.86 in 10.0 mi SW 9.2 mph - N/A   Overcast
3:51 PM 72.0 °F 61.0 °F 68% 29.85 in 10.0 mi WSW 5.8 mph - N/A   Overcast
4:51 PM 73.9 °F 62.1 °F 66% 29.86 in 10.0 mi SSW 6.9 mph - N/A   Mostly Cloudy
5:51 PM 73.0 °F 61.0 °F 66% 29.87 in 10.0 mi West 5.8 mph - N/A   Mostly Cloudy
6:51 PM 71.1 °F 64.0 °F 78% 29.88 in 10.0 mi Calm Calm - N/A   Overcast
7:51 PM 61.0 °F 54.0 °F 78% 30.02 in 10.0 mi NNW 31.1 mph 42.6 mph N/A   Overcast
7:54 PM 60.8 °F 53.6 °F 77% 30.06 in 10.0 mi NNW 33.4 mph 42.6 mph N/A   Overcast
8:21 PM 53.6 °F 51.8 °F 94% 30.05 in 10.0 mi NNE 23.0 mph 36.8 mph 0.00 in Rain Light Rain
8:40 PM 53.6 °F 50.0 °F 88% 30.08 in 10.0 mi North 25.3 mph 34.5 mph 0.00 in   Mostly Cloudy
8:51 PM 52.0 °F 48.0 °F 86% 30.07 in 10.0 mi North 26.5 mph 34.5 mph 0.00 in   Overcast
9:51 PM 50.0 °F 46.0 °F 86% 30.13 in 10.0 mi NNE 13.8 mph 21.9 mph N/A   Overcast
10:05 PM 50.0 °F 44.6 °F 82% 30.16 in 10.0 mi NNE 15.0 mph - N/A   Overcast
10:51 PM 50.0 °F 44.1 °F 80% 30.16 in 10.0 mi NNE 11.5 mph - N/A   Overcast
11:18 PM 50.0 °F 41.0 °F 71% 30.18 in 10.0 mi NNE 17.3 mph - N/A   Overcast
11:51 PM 48.9 °F 41.0 °F 74% 30.16 in 10.0 mi NNE 12.7 mph - N/A   Overcast